Weather History for Lewiston, ID

Change the Weather History Date:

Sunday, June 3, 2012

  Actual Average Record
Temperature  
Mean Temperature 61 °F 63 °F  
Max Temperature 66 °F 75 °F 101 °F (2007)
Min Temperature 56 °F 51 °F 40 °F (1918)
Degree Days  
Heating Degree Days 4 4  
Month to date heating degree days 4 12  
Since 1 June heating degree days 4 12  
Since 1 July heating degree days 4911 5109  
Cooling Degree Days 0 2  
Month to date cooling degree days 6 6  
Year to date cooling degree days 33 38  
Since 1 June cooling degree days 6 6  
Growing Degree Days 10 (Base 50)    
Moisture  
Dew Point 51 °F    
Average Humidity 78    
Maximum Humidity 100    
Minimum Humidity 56    
Precipitation  
Precipitation 0.04 in 0.05 in 0.45 in (1958)
Month to date precipitation 0.28 0.16  
Year to date precipitation 8.87 6.10  
Snow  
Snow 0.00 in 0.00 in 0.00 in (1995)
Month to date snowfall 0.0 0.0  
Since 1 June snowfall 0.0 0.0  
Since 1 July snowfall 13.5 10.5  
Snow Depth 0.00 in    
Sea Level Pressure  
Sea Level Pressure 29.89 in    
Wind  
Wind Speed 2 mph (SE)    
Max Wind Speed 10 mph    
Max Gust Speed 15 mph    
Visibility 10 miles    
Events Rain    
T = Trace of Precipitation, MM = Missing Value Source: NWS Daily Summary

Daily Weather History Graph

Daily Weather History Graph

Search for Another Location

Airport:

Trip Planner

Search our weather history database for the weather conditions in past years. The results will help you decide how hot, cold, wet, or windy it might be!

Date:

Astronomy

Jun. 03, 2012 Rise Set
Actual Time 4:58 AM PDT 8:35 PM PDT
Civil Twilight 4:19 AM PDT 9:13 PM PDT
Nautical Twilight 3:29 AM PDT 10:04 PM PDT
Astronomical Twilight 2:20 AM PDT 11:13 PM PDT
Moon 8:04 PM PDT (6/3) 4:13 AM PDT (6/3)
Length of Visible Light 16h 53m
Length of Day
15h 37m
Waxing Gibbous, 99% of the Moon is Illuminated
Jun 3
Waxing Gibbous
Jun 4
Full
Jun 11
Last Quarter
Jun 19
New
Jun 26
First Quarter

Hourly Weather History & Observations

Time (PDT) Temp. Dew Point Humidity Pressure Visibility Wind Dir Wind Speed Gust Speed Precip Events Conditions
12:56 AM 55.9 °F 51.1 °F 84% 29.86 in 10.0 mi SE 8.1 mph - N/A   Clear
1:56 AM 59.0 °F 51.1 °F 75% 29.86 in 10.0 mi Calm Calm - N/A   Clear
2:56 AM 57.0 °F 51.1 °F 81% 29.86 in 10.0 mi Calm Calm - N/A   Clear
3:56 AM 57.0 °F 50.0 °F 77% 29.87 in 10.0 mi SSE 4.6 mph - N/A   Clear
4:56 AM 55.9 °F 50.0 °F 80% 29.86 in 10.0 mi NW 3.5 mph - N/A   Partly Cloudy
5:56 AM 57.0 °F 50.0 °F 77% 29.87 in 10.0 mi Calm Calm - N/A   Overcast
6:56 AM 57.9 °F 50.0 °F 75% 29.88 in 10.0 mi Calm Calm - N/A   Overcast
7:56 AM 59.0 °F 50.0 °F 72% 29.89 in 10.0 mi Calm Calm - N/A   Overcast
8:56 AM 60.1 °F 48.0 °F 64% 29.89 in 10.0 mi Calm Calm - N/A   Overcast
9:56 AM 62.1 °F 46.9 °F 58% 29.88 in 10.0 mi Calm Calm - N/A   Overcast
10:56 AM 62.1 °F 48.0 °F 60% 29.89 in 10.0 mi Calm Calm - N/A   Overcast
11:56 AM 62.1 °F 48.9 °F 62% 29.89 in 10.0 mi Calm Calm - 0.00 in Rain Light Rain
12:56 PM 61.0 °F 48.9 °F 64% 29.90 in 10.0 mi SSW 3.5 mph - 0.00 in   Overcast
1:56 PM 60.1 °F 50.0 °F 69% 29.90 in 10.0 mi SE 3.5 mph - 0.00 in Rain Light Rain
2:56 PM 62.1 °F 50.0 °F 65% 29.91 in 10.0 mi Calm Calm - 0.00 in   Overcast
3:56 PM 63.0 °F 48.9 °F 60% 29.91 in 10.0 mi Calm Calm - 0.00 in   Mostly Cloudy
4:56 PM 63.0 °F 51.1 °F 65% 29.91 in 10.0 mi SE 8.1 mph - N/A   Mostly Cloudy
5:56 PM 61.0 °F 53.1 °F 75% 29.89 in 10.0 mi SE 9.2 mph - N/A   Mostly Cloudy
6:56 PM 62.1 °F 54.0 °F 75% 29.90 in 10.0 mi Calm Calm - N/A   Overcast
7:56 PM 61.0 °F 54.0 °F 78% 29.90 in 10.0 mi Calm Calm - N/A   Overcast
8:56 PM 59.0 °F 55.9 °F 90% 29.90 in 9.0 mi SE 3.5 mph - 0.01 in Rain Light Rain
9:56 PM 57.9 °F 55.9 °F 93% 29.91 in 10.0 mi Calm Calm - 0.03 in   Mostly Cloudy
10:56 PM 57.9 °F 57.0 °F 97% 29.89 in 10.0 mi ENE 3.5 mph - N/A   Overcast
11:56 PM 57.9 °F 57.0 °F 97% 29.88 in 10.0 mi Calm Calm - N/A   Overcast